Regional Weather Roundup
Issued by NWS

Home | Current Version | Previous Version | Text Only | Print | Product List | Glossary Off
Versions: 1 2 3 4 5 6 7 8 9 10 11 12 13 14 15 16 17 18 19 20 21 22 23 24 25 26 27 28 29 30 31 32 33 34 35 36 37 38 39 40 41 42 43 44 45 46 47 48 49 50

000
ASUS43 KLSX 230007
RWRMO

WEATHER SUMMARY FOR MISSOURI
NATIONAL WEATHER SERVICE SPRINGFIELD MO
600 PM CST THU FEB 22 2018

NOTE: "FAIR" INDICATES FEW OR NO CLOUDS BELOW 12,000 FEET WITH NO
       SIGNIFICANT WEATHER AND/OR OBSTRUCTIONS TO VISIBILITY.
       CURRENT SKY AND/OR WEATHER CONDITIONS ARE NOT AVAILABLE FOR
       CHILLICOTHE AND FARMINGTON.

MOZ001>031-035>038-043-044-053-054-230100-
...NORTHERN AND WESTERN MISSOURI...

CITY           SKY/WX    TMP DP  RH WIND       PRES   REMARKS
KANSAS CTY INT FOG       32  31  96 SE9       30.18S VSB 1/2 WCI  24
6HR MIN TEMP:  30; 6HR MAX TEMP:  32; 6HR PCP:  0.01;

KANSAS C DTWN  CLOUDY    35  31  85 SE8       30.18F WCI  29
6HR MIN TEMP:  32; 6HR MAX TEMP:  35; 6HR PCP: TRACE;

LEE`S SUMMIT   CLOUDY    33  33 100 SE5       30.19S FOG     WCI  29
6HR MIN TEMP:  31; 6HR MAX TEMP:  33; 6HR PCP: TRACE;

ST JOSEPH      CLOUDY    32  32 100 SE5       30.20R FOG     WCI  27
6HR MIN TEMP:  30; 6HR MAX TEMP:  32; 6HR PCP:  0.01;

CHILLICOTHE      N/A     34  32  92 E10       30.21F WCI  26
6HR MIN TEMP:  31; 6HR MAX TEMP:  34; 6HR PCP:  0.01;

KIRKSVILLE     FOG       33  33 100 E13       30.25S VSB 1   WCI  24
6HR MIN TEMP:  31; 6HR MAX TEMP:  33;


$$
MOZ066>068-077>081-088>096-101>105-230100-
...SOUTHWEST MISSOURI...

CITY           SKY/WX    TMP DP  RH WIND       PRES   REMARKS
SPRINGFIELD    LGT RAIN  43  41  93 SE10      30.17F
6HR MIN TEMP:  41; 6HR MAX TEMP:  44; 6HR PCP:  0.12;

JOPLIN         LGT RAIN  42  42 100 SE7       30.18S
6HR MIN TEMP:  38; 6HR MAX TEMP:  42; 6HR PCP:  0.12;

BRANSON        LGT RAIN  39  39 100 E7        30.19F VSB 1/2

$$
MOZ032>034-039>042-045>050-055>058-069>072-230100-
...CENTRAL MISSOURI...

CITY           SKY/WX    TMP DP  RH WIND       PRES   REMARKS
COLUMBIA       FOG       37  50 100 SE12      30.25S VSB 1   WCI  29
6HR MIN TEMP:  36; 6HR MAX TEMP:  37;

JEFFERSON CITY CLOUDY    38  37  97 E8        30.27F FOG
6HR MIN TEMP:  37; 6HR MAX TEMP:  39;

ROLLA          LGT RAIN  39  39 100 E8        30.26F FOG
6HR MIN TEMP:  36; 6HR MAX TEMP:  39; 6HR PCP: TRACE;

SEDALIA        LGT RAIN  37  37 100 E13       30.22F FOG     WCI  29
6HR MIN TEMP:  34; 6HR MAX TEMP:  37; 6HR PCP:  0.01;

WHITEMAN AFB   LGT RAIN  35  34  95 E10       30.16F WCI  28
WARRENSBURG    LGT RAIN  34  34 100 E10       30.22R WCI  26
OSAGE BEACH    LGT RAIN  38  37  97 E7        30.25F VSB 3/4

$$
MOZ051-052-059>065-230100-
...EAST CENTRAL MISSOURI...

CITY           SKY/WX    TMP DP  RH WIND       PRES   REMARKS
ST LOUIS INTL  CLOUDY    43  42  97 CALM      30.31F FOG
6HR MIN TEMP:  40; 6HR MAX TEMP:  44;

SPIRIT OF STL  CLOUDY    42  42 100 CALM      30.30S
6HR MIN TEMP:  39; 6HR MAX TEMP:  43;

ST CHARLES     CLOUDY    42  41  96 CALM      30.31S FOG
6HR MIN TEMP:  40; 6HR MAX TEMP:  44;


$$
MOZ072>076-082>087-097>100-106>115-230100-
...SOUTH CENTRAL AND SOUTHEAST MISSOURI...

CITY           SKY/WX    TMP DP  RH WIND       PRES   REMARKS
CAPE GIRARDEAU CLOUDY    48  44  86 NW3       30.31F
6HR MIN TEMP:  44; 6HR MAX TEMP:  49;

FARMINGTON     CLOUDY    43  42  97 CALM      30.29F
6HR MIN TEMP:  39; 6HR MAX TEMP:  43;

POPLAR BLUFF   CLOUDY    45  43  93 N6        30.29F
6HR MIN TEMP:  42; 6HR MAX TEMP:  45;

WEST PLAINS    LGT RAIN  41  40  96 E7        30.23S
6HR MIN TEMP:  38; 6HR MAX TEMP:  41; 6HR PCP:  0.03;


$$



USA.gov is the U.S. government's official web portal to all federal, state and local government web resources and services.